GW1109 Weather Reports


Display with metric or nautical units.
time (UTC)temp
F
wind
direction
speed
MPH
gust
MPH
rain 1hr
in
rain 24hr
in
rain mn
in
humidity
%
barometer
mb
20260508084542 40 274 3.0 7.0 0.00 0.00 0.00 54 1007.0
20260508083048 40 309 3.0 6.0 0.00 0.00 0.00 55 1006.8
20260508081609 41 309 3.0 8.0 0.00 0.00 0.00 54 1006.7
20260508080041 41 300 4.0 8.0 0.00 0.00 0.00 53 1006.6
20260508074541 41 284 4.0 8.0 0.00 0.00 0.00 54 1006.6
20260508073047 40 312 2.0 4.0 0.00 0.00 0.00 57 1006.5
20260508071549 41 304 2.0 6.0 0.00 0.00 0.00 57 1006.5
20260508070048 40 297 3.0 5.0 0.00 0.00 0.00 58 1006.5
20260508064542 41 302 2.0 4.0 0.00 0.00 0.00 58 1006.5
20260508063055 42 296 3.0 7.0 0.00 0.00 0.00 52 1006.7
20260508061552 43 301 3.0 7.0 0.00 0.00 0.00 51 1006.8
20260508060053 43 311 3.0 8.0 0.00 0.00 0.00 50 1007.0
20260508054545 42 307 4.0 8.0 0.00 0.00 0.00 53 1007.1
20260508053044 43 323 1.0 4.0 0.00 0.00 0.00 48 1007.2
20260508051542 44 326 2.0 8.0 0.00 0.00 0.00 46 1007.3
20260508050048 44 314 3.0 9.0 0.00 0.00 0.00 46 1007.3
20260508044547 44 300 3.0 6.0 0.00 0.00 0.00 47 1007.4
20260508043051 44 319 4.0 8.0 0.00 0.00 0.00 47 1007.4
20260508041541 45 329 5.0 9.0 0.00 0.00 0.00 49 1007.3
20260508040050 46 309 3.0 7.0 0.00 0.00 0.00 47 1007.3
20260508034548 46 318 4.0 9.0 0.00 0.05 0.00 47 1007.5
20260508033049 46 304 6.0 9.0 0.00 0.05 0.00 47 1007.3
20260508031546 47 332 3.0 9.0 0.00 0.05 0.00 45 1007.5
20260508030045 47 301 5.0 10.0 0.00 0.05 0.00 45 1007.4
20260508024548 47 302 5.0 9.0 0.00 0.07 0.00 46 1007.5
20260508023049 47 306 3.0 5.0 0.00 0.07 0.00 47 1007.5
20260508021539 48 0 0.0 4.0 0.00 0.07 0.00 45 1007.3
20260508020047 48 336 3.0 6.0 0.00 0.07 0.00 44 1007.0
20260508014550 48 351 1.0 5.0 0.00 0.07 0.00 43 1006.8
20260508013049 49 296 2.0 5.0 0.00 0.07 0.00 40 1006.6
20260508011542 50 284 1.0 4.0 0.00 0.07 0.00 38 1006.5
20260508010047 51 283 3.0 9.0 0.00 0.07 0.00 37 1006.2
20260508004548 51 271 5.0 10.0 0.00 0.07 0.00 36 1005.9
20260508003047 52 290 4.0 8.0 0.00 0.07 0.00 35 1005.8
20260508001546 52 296 3.0 9.0 0.00 0.07 0.00 34 1005.6
20260508000050 52 303 3.0 8.0 0.00 0.07 0.00 34 1005.3
20260507234541 53 288 4.0 9.0 0.00 0.07 0.00 33 1005.2
20260507233045 54 300 4.0 11.0 0.00 0.07 0.00 31 1005.2
20260507231553 55 297 9.0 15.0 0.00 0.07 0.00 30 1005.0
20260507230051 56 268 5.0 11.0 0.00 0.07 0.00 30 1004.8
20260507224550 56 298 7.0 14.0 0.00 0.07 0.00 30 1004.7
20260507223046 57 308 11.0 17.0 0.00 0.07 0.00 28 1004.5
20260507221541 56 309 8.0 16.0 0.00 0.07 0.00 29 1004.6
20260507220040 58 250 8.0 16.0 0.00 0.07 0.00 28 1004.5
20260507214600 58 319 8.0 13.0 0.00 0.08 0.00 27 1004.4
20260507213046 58 277 9.0 18.0 0.00 0.08 0.00 28 1004.4
20260507211549 58 257 7.0 16.0 0.00 0.08 0.00 31 1004.4
20260507210047 57 287 8.0 19.0 0.00 0.08 0.00 33 1004.3
20260507204540 57 314 7.0 15.0 0.00 0.16 0.00 32 1004.2
20260507203102 58 274 9.0 16.0 0.00 0.16 0.00 31 1004.3
20260507201556 58 330 7.0 13.0 0.00 0.16 0.00 31 1004.3
20260507200104 58 272 5.0 21.0 0.00 0.16 0.00 36 1004.3
20260507194545 58 327 9.0 18.0 0.00 0.25 0.00 36 1004.4
20260507193049 57 313 11.0 20.0 0.00 0.25 0.00 32 1004.5
20260507191541 58 309 13.0 24.0 0.00 0.25 0.00 33 1004.4
20260507190041 57 258 11.0 21.0 0.00 0.25 0.00 33 1004.8
20260507184555 58 284 13.0 22.0 0.00 0.46 0.00 31 1004.7
20260507183048 57 329 11.0 18.0 0.00 0.46 0.00 38 1004.7
20260507181548 58 298 10.0 18.0 0.00 0.46 0.00 37 1004.8
20260507180050 58 273 13.0 20.0 0.00 0.46 0.00 40 1004.7
20260507174544 56 288 10.0 22.0 0.00 0.46 0.00 35 1004.8
20260507173049 57 344 16.0 28.0 0.00 0.46 0.00 38 1004.9
20260507171545 56 257 10.0 19.0 0.00 0.46 0.00 45 1005.1
20260507170057 55 259 12.0 19.0 0.00 0.46 0.00 53 1005.4
20260507164557 55 280 6.0 16.0 0.00 0.46 0.00 54 1005.5
20260507163043 55 284 10.0 17.0 0.00 0.46 0.00 53 1005.5
20260507161548 56 309 5.0 14.0 0.00 0.46 0.00 54 1005.5
20260507160049 55 315 9.0 19.0 0.00 0.46 0.00 53 1005.6
20260507154553 56 300 11.0 16.0 0.00 0.46 0.00 51 1005.9
20260507153046 55 265 8.0 17.0 0.00 0.46 0.00 54 1006.0
20260507151546 55 222 6.0 15.0 0.00 0.46 0.00 55 1006.0
20260507150051 56 329 11.0 18.0 0.00 0.46 0.00 52 1006.0
20260507144550 55 283 10.0 19.0 0.00 0.46 0.00 50 1006.1
20260507143057 55 287 11.0 17.0 0.00 0.46 0.00 53 1006.0
20260507141553 55 305 9.0 17.0 0.00 0.46 0.00 54 1005.9
20260507140046 55 309 9.0 14.0 0.00 0.46 0.00 53 1005.9
20260507134545 54 289 6.0 13.0 0.00 0.46 0.00 56 1006.2
20260507133106 54 326 8.0 16.0 0.00 0.46 0.00 57 1006.4
20260507131553 54 287 8.0 12.0 0.00 0.46 0.00 58 1006.5
20260507130104 54 296 6.0 10.0 0.00 0.46 0.00 60 1006.5
20260507124547 53 343 7.0 14.0 0.00 0.46 0.00 63 1006.6
20260507123045 52 292 3.0 8.0 0.00 0.46 0.00 70 1006.7
20260507121549 51 291 3.0 9.0 0.00 0.46 0.00 75 1006.8
20260507120052 51 252 4.0 9.0 0.00 0.46 0.00 82 1006.8
20260507114614 50 294 5.0 9.0 0.00 0.46 0.00 82 1006.8
20260507113047 50 309 5.0 9.0 0.00 0.46 0.00 86 1006.7
20260507111540 49 266 1.0 4.0 0.00 0.46 0.00 88 1006.7
20260507110046 49 288 2.0 5.0 0.00 0.46 0.00 89 1006.8
20260507104546 49 0 0.0 2.0 0.00 0.46 0.00 89 1006.8
20260507103049 49 21 2.0 7.0 0.00 0.46 0.00 90 1006.4
20260507101544 49 308 2.0 6.0 0.00 0.46 0.00 91 1007.0
20260507100048 49 294 3.0 6.0 0.00 0.46 0.00 91 1006.9
20260507094547 49 286 3.0 8.0 0.00 0.46 0.00 90 1006.6
20260507093048 49 270 3.0 7.0 0.00 0.46 0.00 89 1006.7
20260507091546 49 296 3.0 7.0 0.00 0.46 0.00 89 1006.5
20260507090042 49 355 4.0 9.0 0.00 0.46 0.00 89 1005.8